DW7756 Weather Reports


Display with metric or nautical units.
time (UTC)temp
F
wind
direction
speed
MPH
gust
MPH
rain 1hr
in
rain 24hr
in
rain mn
in
humidity
%
barometer
mb
20260506061532 66 0 0.0 0.0 0.00 0.00 0.00 84 1016.4
20260506044536 66 0 0.0 2.0 0.00 0.00 0.00 81 1016.6
20260506043034 66 0 0.0 1.0 0.00 0.00 0.00 80 1016.6
20260506041532 66 0 0.0 0.0 0.00 0.00 0.00 80 1016.6
20260506040042 66 0 0.0 1.0 0.00 0.00 0.00 80 1016.6
20260506034530 67 0 0.0 0.0 0.00 0.00 0.00 79 1016.7
20260506033029 67 0 0.0 0.0 0.00 0.00 0.00 77 1016.7
20260506031530 67 0 0.0 0.0 0.00 0.00 0.00 76 1016.8
20260506030032 67 0 0.0 0.0 0.00 0.00 0.00 75 1016.7
20260506024540 68 0 0.0 0.0 0.00 0.00 0.00 75 1016.6
20260506023030 68 0 0.0 2.0 0.00 0.00 0.00 73 1016.7
20260506021548 69 0 0.0 1.0 0.00 0.00 0.00 72 1016.5
20260506020030 70 0 0.0 0.0 0.00 0.00 0.00 71 1016.4
20260506014529 70 0 0.0 0.0 0.00 0.00 0.00 70 1016.6
20260506013029 71 0 0.0 0.0 0.00 0.00 0.00 69 1016.5
20260506011533 72 0 0.0 2.0 0.00 0.00 0.00 68 1016.2
20260506010043 72 0 0.0 2.0 0.00 0.00 0.00 67 1015.9
20260506004531 72 101 0.0 4.0 0.00 0.00 0.00 66 1015.8
20260506003029 73 99 1.0 3.0 0.00 0.00 0.00 65 1015.9
20260506001528 74 109 1.0 5.0 0.00 0.00 0.00 63 1015.6
20260506000031 74 90 1.0 4.0 0.00 0.00 0.00 62 1015.6
20260505234547 75 87 2.0 6.0 0.00 0.00 0.00 61 1015.6
20260505233033 76 92 1.0 6.0 0.00 0.00 0.00 60 1015.6
20260505231532 76 86 2.0 7.0 0.00 0.00 0.00 57 1015.6
20260505230031 77 72 3.0 9.0 0.00 0.00 0.00 57 1015.5
20260505224533 78 63 2.0 8.0 0.00 0.00 0.00 56 1015.7
20260505223029 78 54 2.0 8.0 0.00 0.00 0.00 55 1015.7
20260505221529 79 137 2.0 6.0 0.00 0.00 0.00 55 1015.9
20260505220031 79 54 2.0 8.0 0.00 0.00 0.00 53 1016.0
20260505214542 80 84 0.0 6.0 0.00 0.00 0.00 52 1015.8
20260505213031 80 113 3.0 8.0 0.00 0.00 0.00 52 1015.7
20260505211539 80 71 2.0 5.0 0.00 0.00 0.00 50 1015.6
20260505210029 80 46 2.0 8.0 0.00 0.00 0.00 51 1015.6
20260505204534 80 61 3.0 7.0 0.00 0.00 0.00 51 1015.7
20260505203046 81 97 5.0 12.0 0.00 0.00 0.00 50 1015.7
20260505201535 82 130 3.0 8.0 0.00 0.00 0.00 50 1015.7
20260505200031 82 67 3.0 9.0 0.00 0.00 0.00 47 1015.9
20260505194531 82 96 3.0 9.0 0.00 0.00 0.00 47 1016.1
20260505193030 82 65 3.0 9.0 0.00 0.00 0.00 47 1016.2
20260505191529 83 32 2.0 8.0 0.00 0.00 0.00 49 1016.3
20260505190031 82 9 2.0 9.0 0.00 0.00 0.00 49 1016.5
20260505184543 82 96 3.0 9.0 0.00 0.00 0.00 48 1016.4
20260505183039 82 65 3.0 10.0 0.00 0.00 0.00 48 1016.5
20260505181531 83 68 2.0 7.0 0.00 0.00 0.00 46 1016.8
20260505180031 82 58 2.0 7.0 0.00 0.00 0.00 50 1016.7
20260505174530 81 106 2.0 6.0 0.00 0.00 0.00 51 1016.8
20260505173031 82 80 3.0 9.0 0.00 0.00 0.00 50 1016.9
20260505171529 83 94 1.0 9.0 0.00 0.00 0.00 53 1017.2
20260505170037 82 66 2.0 8.0 0.00 0.00 0.00 54 1017.1
20260505164535 82 175 3.0 10.0 0.00 0.00 0.00 51 1017.0
20260505163034 82 155 3.0 7.0 0.00 0.00 0.00 50 1017.0
20260505161530 82 68 2.0 6.0 0.00 0.00 0.00 53 1016.8
20260505153031 82 109 2.0 6.0 0.00 0.00 0.00 55 1017.0
20260505151538 81 39 2.0 6.0 0.00 0.00 0.00 56 1016.8
20260505124536 74 128 2.0 6.0 0.00 0.00 0.00 74 1016.2
20260505123034 73 116 3.0 9.0 0.00 0.00 0.00 78 1016.2
20260505121537 70 84 2.0 6.0 0.00 0.00 0.00 83 1016.1
20260505120031 68 75 1.0 3.0 0.00 0.00 0.00 86 1016.2
20260505114529 66 0 1.0 3.0 0.00 0.00 0.00 86 1015.9
20260505113040 64 0 0.0 0.0 0.00 0.00 0.00 85 1015.7
20260505111541 64 0 0.0 0.0 0.00 0.00 0.00 84 1015.6
20260505101535 65 0 0.0 0.0 0.00 0.00 0.00 84 1015.2
20260505100034 65 0 0.0 0.0 0.00 0.00 0.00 83 1015.2
20260505094531 65 0 0.0 0.0 0.00 0.00 0.00 82 1015.0
20260505093034 66 0 0.0 0.0 0.00 0.00 0.00 82 1014.9
20260505091530 66 0 0.0 0.0 0.00 0.00 0.00 82 1015.0
20260505090031 66 0 0.0 2.0 0.00 0.00 0.00 81 1014.9
20260505084532 67 84 0.0 2.0 0.00 0.00 0.00 81 1014.7
20260505083033 67 91 1.0 2.0 0.00 0.00 0.00 81 1014.6
20260505081530 67 100 0.0 2.0 0.00 0.00 0.00 80 1014.7
20260505080031 67 69 1.0 3.0 0.00 0.00 0.00 80 1014.7
20260505074531 67 0 0.0 3.0 0.00 0.00 0.00 79 1014.9
20260505073031 67 92 1.0 3.0 0.00 0.00 0.00 79 1014.9
20260505071532 67 86 1.0 2.0 0.00 0.00 0.00 79 1015.1
20260505070030 67 86 1.0 4.0 0.00 0.00 0.00 79 1015.1